This is the latest recevied weather packets stored in our database for station/object XE2OR-10. If no packets are shown the sender has not sent any weather packets the latest 10 day(s).
| Time | Temp. | Humidity | Pressure | Rain* | Wind** | Luminosity | Snow |
|---|---|---|---|---|---|---|---|
| 1777926232 | 30.56° C | 62% | 1015.1 hPa | 0 mm | - | 721 W/m² | - |
| 1777925929 | 30° C | 62% | 1015.5 hPa | 0 mm | - | 746 W/m² | - |
| 1777925632 | 30° C | 63% | 1015.4 hPa | 0 mm | - | 705 W/m² | - |
| 1777925329 | 29.44° C | 62% | 1015.4 hPa | 0 mm | - | 750 W/m² | - |
| 1777925029 | 28.89° C | 64% | 1015.3 hPa | 0 mm | - | 599 W/m² | - |
| 1777924728 | 29.44° C | 64% | 1015.5 hPa | 0 mm | - | 478 W/m² | - |
| 1777924433 | 29.44° C | 64% | 1015.8 hPa | 0 mm | - | 805 W/m² | - |
| 1777924130 | 29.44° C | 63% | 1015.6 hPa | 0 mm | - | 808 W/m² | - |
| 1777923832 | 29.44° C | 64% | 1015.6 hPa | 0 mm | - | 799 W/m² | - |
| 1777923528 | 29.44° C | 65% | 1015.6 hPa | 0 mm | - | 816 W/m² | - |
| 1777923229 | 29.44° C | 64% | 1015.7 hPa | 0 mm | - | 811 W/m² | - |
| 1777922929 | 28.89° C | 64% | 1015.7 hPa | 0 mm | - | 423 W/m² | - |
| 1777922633 | 29.44° C | 64% | 1015.8 hPa | 0 mm | - | 445 W/m² | - |
| 1777922329 | 29.44° C | 64% | 1016 hPa | 0 mm | - | 598 W/m² | - |
| 1777922033 | 30° C | 64% | 1015.8 hPa | 0 mm | - | 365 W/m² | - |
| 1777921729 | 30° C | 63% | 1016 hPa | 0 mm | - | 794 W/m² | - |
| 1777921429 | 28.33° C | 65% | 1016.1 hPa | 0 mm | - | 767 W/m² | - |
| 1777921129 | 28.89° C | 64% | 1016.3 hPa | 0 mm | - | 602 W/m² | - |
| 1777920833 | 29.44° C | 64% | 1016.4 hPa | 0 mm | - | 720 W/m² | - |
| 1777920529 | 28.89° C | 63% | 1016.6 hPa | 0 mm | - | 654 W/m² | - |
| 1777920233 | 28.33° C | 66% | 1016.5 hPa | 0 mm | - | 802 W/m² | - |
| 1777919929 | 28.33° C | 66% | 1016.3 hPa | 0 mm | - | 771 W/m² | - |
| 1777919629 | 28.89° C | 65% | 1016.4 hPa | 0 mm | - | 731 W/m² | - |
| 1777919329 | 28.89° C | 64% | 1016.6 hPa | 0 mm | - | 736 W/m² | - |
| 1777919033 | 28.33° C | 67% | 1016.9 hPa | 0 mm | - | 740 W/m² | - |
* Rain latest hour (hover to see other rain measurements)
** Current wind speed in m/s (hover to see current wind gust speed)